Terminal Aerodrome Forecast
Issued by NWS

Home | Current Version | Previous Version | Text Only | Print | Product List | Glossary On
Versions: 1 2 3 4 5 6 7 8 9 10 11 12 13 14 15 16 17 18 19 20 21 22 23 24 25 26 27 28 29 30
000
FTUS42 KCAE 270200 AAC
TAFCUB
TAF AMD
KCUB 270242Z 2703/2724 22005KT P6SM BKN040
     FM270800 23006KT 5SM -SHRA BR SCT008 OVC025
     FM271100 23006KT 3SM -SHRA OVC008
     FM271400 32012G18KT P6SM -RA OVC025
     FM272300 36006KT P6SM BKN035=

USA.gov is the U.S. government's official web portal to all federal, state and local government web resources and services.